Change the Weather History Date:

Monday, August 19, 2013

  Actual Average Record
Temperature  
Mean Temperature 69 °F 70 °F  
Max Temperature 83 °F 81 °F 89 °F (2003)
Min Temperature 54 °F 60 °F 43 °F (2004)
Degree Days  
Heating Degree Days 0 0  
Month to date heating degree days 6 2  
Since 1 June heating degree days 58 36  
Since 1 July heating degree days 21 8  
Cooling Degree Days 4 6  
Month to date cooling degree days 67 130  
Year to date cooling degree days 533 596  
Since 1 June cooling degree days 472 546  
Growing Degree Days 18 (Base 50)    
Moisture  
Dew Point 60 °F    
Average Humidity 70    
Maximum Humidity 93    
Minimum Humidity 47    
Precipitation  
Precipitation 0.00 in 0.13 in 2.27 in (2007)
Month to date precipitation 0.10 2.62  
Sea Level Pressure  
Sea Level Pressure 30.04 in    
Wind  
Wind Speed 6 mph (South)    
Max Wind Speed 15 mph    
Max Gust Speed 20 mph    
Visibility 10 miles    
Events      
T = Trace of Precipitation, MM = Missing Value Source: NWS Daily Summary

Daily Weather History Graph

Daily Weather History Graph

Search for Another Location

Airport or City:

Trip Planner

Search our weather history database for the weather conditions in past years. The results will help you decide how hot, cold, wet, or windy it might be!

Date:

Astronomy

Aug. 19, 2013 Rise Set
Actual Time 6:23 AM CDT 8:05 PM CDT
Civil Twilight 5:54 AM CDT 8:35 PM CDT
Nautical Twilight 5:17 AM CDT 9:11 PM CDT
Astronomical Twilight 4:39 AM CDT 9:49 PM CDT
Moon 6:57 PM CDT (8/19) 4:42 AM CDT (8/19)
Length of Visible Light 14h 41m
Length of Day
13h 42m
Waxing Gibbous, 97% of the Moon is Illuminated
Aug 19
Waxing Gibbous
Aug 20
Full
Aug 28
Last Quarter
Sep 5
New
Sep 12
First Quarter

Hourly Weather History & Observations

Time (CDT) Temp. Heat Index Dew Point Humidity Pressure Visibility Wind Dir Wind Speed Gust Speed Precip Events Conditions
12:53 AM 63.0 °F - 55.9 °F 78% 30.08 in 10.0 mi SSE 5.8 mph - N/A   Clear
1:53 AM 60.1 °F - 55.0 °F 83% 30.08 in 10.0 mi South 4.6 mph - N/A   Clear
2:53 AM 60.1 °F - 55.0 °F 83% 30.07 in 10.0 mi Calm Calm - N/A   Mostly Cloudy
3:53 AM 57.9 °F - 55.0 °F 90% 30.07 in 10.0 mi Calm Calm - N/A   Clear
4:53 AM 57.0 °F - 54.0 °F 89% 30.07 in 10.0 mi Calm Calm - N/A   Clear
5:53 AM 55.9 °F - 54.0 °F 93% 30.08 in 10.0 mi Calm Calm - N/A   Scattered Clouds
6:53 AM 55.0 °F - 53.1 °F 93% 30.07 in 7.0 mi ESE 3.5 mph - N/A   Clear
7:53 AM 60.1 °F - 57.0 °F 90% 30.08 in 8.0 mi ESE 3.5 mph - N/A   Clear
8:53 AM 66.9 °F - 62.1 °F 84% 30.09 in 9.0 mi South 3.5 mph - N/A   Clear
9:53 AM 71.1 °F - 63.0 °F 75% 30.08 in 10.0 mi SSW 6.9 mph - N/A   Clear
11:53 AM 75.9 °F - 63.0 °F 64% 30.07 in 10.0 mi SSW 10.4 mph 17.3 mph N/A   Clear
12:53 PM 77.0 °F - 62.1 °F 60% 30.06 in 10.0 mi SSW 12.7 mph 19.6 mph N/A   Clear
1:53 PM 80.1 °F 81.2 °F 62.1 °F 54% 30.05 in 10.0 mi South 12.7 mph - N/A   Clear
2:53 PM 82.0 °F 83.1 °F 63.0 °F 52% 30.03 in 10.0 mi South 10.4 mph - N/A   Clear
3:53 PM 82.9 °F 84.0 °F 63.0 °F 51% 30.01 in 10.0 mi SSW 10.4 mph - N/A   Clear
4:53 PM 82.9 °F 83.3 °F 61.0 °F 47% 30.01 in 10.0 mi South 10.4 mph - N/A   Clear
5:53 PM 82.0 °F 83.0 °F 62.1 °F 51% 30.00 in 10.0 mi South 8.1 mph - N/A   Mostly Cloudy
6:53 PM 79.0 °F - 62.1 °F 56% 29.99 in 10.0 mi South 5.8 mph - N/A   Mostly Cloudy
7:53 PM 75.9 °F - 63.0 °F 64% 29.99 in 10.0 mi SSE 6.9 mph - N/A   Clear
8:53 PM 73.0 °F - 63.0 °F 71% 29.99 in 10.0 mi SSE 6.9 mph - N/A   Clear
9:53 PM 71.1 °F - 62.1 °F 73% 29.99 in 10.0 mi SE 4.6 mph - N/A   Clear
10:53 PM 71.1 °F - 62.1 °F 73% 29.99 in 10.0 mi SSE 6.9 mph - N/A   Unknown
11:53 PM 70.0 °F - 61.0 °F 73% 29.98 in 10.0 mi SSE 6.9 mph - N/A   Mostly Cloudy